Location: Pedimozza
(42.0500°N, 9.3500°E)
Time: 14:52:56
(UTC+00:00)

DMSP B5D2-2 - Pass Details

Date: 19 August 2019
Orbit: 791 x 806 km, 98.4° (Epoch: 18 September)

Event Time Altitude Azimuth Distance (km) Brightness Sun altitude
Rises 20:16:43 0° 10° (N) 3,309 7.7 -20.1°
Reaches altitude 10° 20:19:04 10° 8° (N) 2,377 6.9 -20.4°
Maximum altitude 20:24:17 69° 287° (WNW) 857 4.3 -21.2°
Drops below altitude 10° 20:29:29 10° 204° (SSW) 2,370 6.3 -21.9°
Enters shadow 20:29:59 - 204° (SSW) 2,567 6.5 -22.0°
